Location: Kawakawa
(35.3830°S, 174.0670°E)
Time: 13:27:35
(UTC+13:00)

H-2A R/B - Pass Details

Date: 24 January 2019
Orbit: 734 x 836 km, 98.3° (Epoch: 18 February)

Event Time Altitude Azimuth Distance (km) Brightness Sun altitude
Rises 22:36:44 0° 166° (SSE) 3,250 5.7 -20.9°
Reaches altitude 10° 22:39:05 10° 164° (SSE) 2,304 4.8 -21.2°
Maximum altitude 22:44:09 76° 78° (ENE) 774 1.8 -21.9°
Enters shadow 22:45:38 46° 2° (N) 1,002 2.2 -22.1°
